THOR ABLESTAR R/B, 953

Orbit data source: Space-Track

THOR ABLESTAR R/B, 953 is space debris in LEO originally from a launch on Sun, 13 Dec 1964 UTC launched from the Air Force Western Test Range (AFWTR). Debris objects in space refer to the collection of defunct objects orbiting the Earth. Examples of debris include non-operational satellites, rocket bodies, and fragments generated from explosions, collisions, or faulty payload assembly.

Loading next visibility...
Identifier
953, 1964-083A
Orbit
LEO
Country
Flag of USUS
Related business
Manufacturer
Aerojet
Mission
Spacecraft
Bus & Motor
ABLESTAR, Unknown motor
Mass
~600 kg wet, 600 kg dry
Launch date (UTC)
1964-12-13 (61 years ago)
Launch vehicle
Unknown
Launch site
Air Force Western Test Range (AFWTR)
Object type
Payload
Rocket body
Debris
Shape & HBR
Unknown
Radar Cross Section
Large (>1 m²)

Expand to show TLE details & history
Last TLE update: 11 hours ago

TLE from 11 hours ago
0 THOR ABLESTAR R/B
1   953U 64083A   26035.82328560  .00000056  00000-0  62421-4 0  9998
2   953  90.0305 192.6206 0033590 102.8341  20.0978 13.58827647 30607
Epoch: 2026-02-04T19:45Z
TLE epoch observation values (Epoch: 2026-02-04T19:45:31.875Z)
Latitude
57.02889°
Longitude
-58.69978°
Altitude
1,026.201 km
Speed
7.356 km/s
True Right ascension
00h 50m 40s
True Declination
56° 52' 39"
Sunlit
Object was in daylight at epoch
Visualization orbit readout
Latitude
Unknown
Longitude
Unknown
Altitude
Unknown
Speed
Unknown
Apparent Right ascension
Unknown
Apparent Declination
Unknown
Sunlit
N/A
Visualization observer readout
Local Sidereal Time
08:44:06
Azimuth
Unknown
Elevation
Unknown
Doppler factor
Unknown
Orbital elements
Apogee altitude
1,061.9 km
Perigee altitude
1,012.085 km
Semi-major axis
7,415.13 km
Eccentricity
0.00336
Inclination
90.0305°
RAAN
192.6206°
Arg. of periapsis
102.8341°
True anomaly
20.23059°
Mean anomaly
20.0978°
Eccentric anomaly
20.16414°
Mean motion
3.39911 °/min
Orbital period
105.91 mins
BSTAR
0.000062421
Loading maneuver chart data...
Computing Atmospheric mass density...

Documentation

Showing up to 5 results
|